AirNav   Pilot Hours Calculator
 
 714 users online  

MO41 Landing Pad
Troy, Missouri, USA

GOING TO TROY?


FAA INFORMATION EFFECTIVE 08 OCTOBER 2020

Location

FAA Identifier: MO41
Lat/Long: 38-58-55.6700N 090-57-47.1100W
38-58.927833N 090-57.785167W
38.9821306,-90.9630861
(estimated)
Elevation: 520 ft. / 158 m (estimated)
Variation: 01E (1995)
Time zone: UTC -5 (UTC -6 during Standard Time)
Zip code: 63379

Heliport Operations

Heliport use: Private use, MEDICAL USE.
Activation date: 10/1997
Control tower: no
ARTCC: KANSAS CITY CENTER
FSS: SAINT LOUIS FLIGHT SERVICE STATION
Attendance: CONTINUOUS
Wind indicator: yes
Segmented circle: no
Lights: FOR PERIMETER AND FLOOD LGTS CALL 314-528-8551.

Nearby radio navigation aids

VOR radial/distance  VOR name  Freq  Var
FTZr356/17.3FORISTELL VORTAC110.8005E
STLr287/23.6ST LOUIS VORTAC117.4001E

Heliport Services

Runway Information

Helipad H1

Dimensions: 50 x 50 ft. / 15 x 15 m
Surface: concrete
Runway edge lights: PERI
INGROUND GREEN LED LGTS AND FLOOD LGTS.
Latitude: 38-58.927833N
Longitude: 090-57.785167W
Elevation: 520.0 ft.
Traffic pattern: leftleft

Heliport Ownership and Management from official FAA records

Ownership: Privately-owned
Owner: LINCOLN COUNTY MEMORIAL HOSP.
1000 EAST CHERRY STREET
TROY, MO 63379
Phone 314-528-8551
MERCY HOSPITAL LINCOLN LEASES THIS PROPERTY FROM LINCOLN COUNTY MEDICAL CENTER AND IS IN CHARGE OF ALL OPERATIONS.
Manager: MARK THORN
1000 EAST CHERRY STREET
TROY, MO 63379
Phone 314-528-8551

Additional Remarks

OWNER DESIRES HELIPORT NOT BE CHARTED.
FOR CD CTC ST LOUIS APCH AT 314-890-1018.

Instrument Procedures

There are no published instrument procedures at MO41.

Some nearby airports with instrument procedures:

KFYG - Washington Regional Airport (24 nm S)
KSUS - Spirit of St Louis Airport (24 nm SE)
KSET - St Charles County Smartt Airport (25 nm E)
H19 - Bowling Green Municipal Airport (26 nm NW)
1H0 - Creve Coeur Airport (26 nm SE)
 
Loc | Ops | Rwys | IFR | FBO | Links
Com | Nav | Svcs | Stats | Notes
Area around MO41 (Landing Pad)
 
Road maps at: MapQuest Bing Google
 
Aerial photo
No photo
 
Sectional chart

 
Airport distance calculator
Flying to Landing Pad? Find the distance to fly.

From to MO41

Sunrise and sunset
Times for 28-Oct-2020
 Local
(UTC-5)
 Zulu
(UTC)
Morning civil twilight07:0212:02
Sunrise07:2912:29
Sunset18:0623:06
Evening civil twilight18:3423:34

Current date and time
Zulu (UTC)  28-Oct-2020 11:57:35
Local (UTC-5)  28-Oct-2020 06:57:35
 
METAR
KFYG 
24nm S 
280915Z AUTO 00000KT 5SM BR OVC006 04/04 A3013 RMK AO2
KSUS 
25nm SE 
280854Z AUTO 00000KT 8SM OVC007 05/04 A3015 RMK AO2 SLP215 T00500039 58007
KSET 
25nm E 
280915Z AUTO 00000KT 5SM BR SCT015 OVC049 06/04 A3014 RMK AO2 T00560039
KSTL 
31nm SE 
280925Z 00000KT 4SM -DZ BR OVC004 05/03 A3013 RMK AO2 DZE07B25 P0000 T00500033
KPPQ 
40nm N 
280930Z AUTO 00000KT 10SM OVC027 04/02 A3014 RMK AO2 T00400019
KMYJ 
41nm W 
280935Z AUTO 00000KT 7SM OVC004 02/02 A3014 RMK AO2
KALN 
44nm E 
280935Z AUTO 00000KT 3SM BR OVC004 05/05 A3013 RMK AO2 T00450045
KCPS 
45nm SE 
280853Z AUTO 00000KT 4SM BR OVC003 06/05 A3015 RMK AO2 SLP213 T00560050 58010
TAF
KSUS 
25nm SE 
280530Z 2806/2906 VRB03KT 3SM -DZ BR OVC005 FM280800 VRB03KT 3SM BR OVC004 FM281400 VRB03KT P6SM OVC006 FM281800 VRB03KT P6SM OVC020 FM290200 05005KT 6SM -RA BR OVC010
NOTAMs
Click for the latest NOTAMs
NOTAMs are issued by the DoD/FAA and will open in a separate window not controlled by AirNav.

 

 
 

Would you like to see your business listed on this page?

 If your business provides an interesting product or service to pilots, flight crews, aircraft, or users of the Landing Pad, you should consider listing it here.  To start the listing process, click on the button below
 
Add a business
 

Other Pages about Landing Pad

Update a link
 
Copyright © AirNav, LLC. All rights reserved. Privacy Policy  Contact